Showing default

S5, 44065

Orbit data source: Space-Track

S5, 44065 is a payload satellite owned by AFRL/RV (US) in GEO that was launched on Fri, 22 Feb 2019 UTC via an FALCON 9 launch vehicle from the Air Force Eastern Test Range (AFETR). Payload-class satellites include a variety of spacecraft equipped with specific instruments for various scientific and technological missions. These include communications satellites like Starlink; space stations such as the ISS; scientific satellites like the Hubble; Earth observation satellites from companies like Planet Labs, Umbra, and HawkEye 360; GPS; miniature CubeSats for education and research; and military/defense satellites.

Not visible in the next 10 days
Identifier
44065, 2019-009D
Orbit
GEO
Country
Flag of USUS
Related business
Manufacturer
Blue Canyon
Mission
Partially operational Defense Imaging
Bus & Motor
PODSAT, Unknown motor
Mass
61 kg wet, ~55 kg dry
Launch date (UTC)
2019-02-22 (7 years ago)
Launch vehicle
FALCON 9
Launch site
Air Force Eastern Test Range (AFETR)
Object type
Payload
Rocket body
Debris
Shape & HBR
Box + Cyl + 1 Pan, 0.3 m
Radar Cross Section
0.375 m², Large (>1 m²)

Expand to show TLE details & history
Last TLE update: 2 days ago

TLE from 2 days ago
0 S5
1 44065U 19009D   26206.12419530  .00000052  00000-0  00000-0 0  9996
2 44065   6.6548  70.3742 0004288 125.6562 226.5150  0.99333729 26815
Epoch: 2026-07-25T02:58Z
TLE epoch observation values (Epoch: 2026-07-25T02:58:50.473Z)
Latitude
-0.90998°
Longitude
75.01917°
Altitude
36,063.705 km
Speed
3.064 km/s
True Right ascension
04h 10m 16s
True Declination
0° 54' 33"
Sunlit
Object was in daylight at epoch
Visualization orbit readout
Latitude
Unknown
Longitude
Unknown
Altitude
Unknown
Speed
Unknown
Apparent Right ascension
Unknown
Apparent Declination
Unknown
Sunlit
N/A
Visualization observer readout
Local Sidereal Time
05:29:58
Azimuth
Unknown
Elevation
Unknown
Doppler factor
Unknown
Orbital elements
Apogee altitude
36,070.871 km
Perigee altitude
36,034.482 km
Semi-major axis
42,430.814 km
Eccentricity
0.00043
Inclination
6.6548°
RAAN
70.3742°
Arg. of periapsis
125.6562°
True anomaly
226.47936°
Mean anomaly
226.515°
Eccentric anomaly
226.49718°
Mean motion
0.24833 °/min
Orbital period
1,449.71 mins
BSTAR
0
Loading maneuver chart data...
Computing Atmospheric mass density...
Loading historical data...
Loading historical data...
Loading historical data...
Loading historical data...
Loading historical data...
Loading historical data...
Loading historical data...
Other satellites on launch #9 in the year 2019 (2019-02-22 UTC)

Documentation

Showing up to 5 results
|